THORAD AGENA D DEB, 4705

Orbit data source: Space-Track

THORAD AGENA D DEB, 4705 is space debris in SSO originally from a launch on Wed, 08 Apr 1970 UTC launched from the Air Force Western Test Range (AFWTR). Debris objects in space refer to the collection of defunct objects orbiting the Earth. Examples of debris include non-operational satellites, rocket bodies, and fragments generated from explosions, collisions, or faulty payload assembly.

Loading next visibility...
Identifier
4705, 1970-025BT
Orbit
SSO
Country
Flag of USUS
Related business
Manufacturer
Unknown
Mission
Spacecraft
Bus & Motor
Unknown
Mass
Unknown
Launch date (UTC)
1970-04-08 (56 years ago)
Launch vehicle
Unknown
Launch site
Air Force Western Test Range (AFWTR)
Object type
Payload
Rocket body
Debris
Shape & HBR
Unknown shape, 0.1 m
Radar Cross Section
Small (<0.1 m²)

Expand to show TLE details & history
Last TLE update: 20 hours ago

TLE from 20 hours ago
0 THORAD AGENA D DEB
1 04705U 70025BT  26072.28639005  .00000345  00000-0  53011-3 0  9995
2 04705 100.0310 201.5665 0044663 120.0109 270.3574 13.58933364757286
Epoch: 2026-03-13T06:52Z
TLE epoch observation values (Epoch: 2026-03-13T06:52:24.100Z)
Latitude
29.40356°
Longitude
-78.14939°
Altitude
1,043.059 km
Speed
7.333 km/s
True Right ascension
13h 03m 30s
True Declination
29° 15' 44"
Sunlit
Object was in full shadow at epoch
Visualization orbit readout
Latitude
Unknown
Longitude
Unknown
Altitude
Unknown
Speed
Unknown
Apparent Right ascension
Unknown
Apparent Declination
Unknown
Sunlit
N/A
Visualization observer readout
Local Sidereal Time
07:29:02
Azimuth
Unknown
Elevation
Unknown
Doppler factor
Unknown
Orbital elements
Apogee altitude
1,069.995 km
Perigee altitude
1,003.76 km
Semi-major axis
7,415.015 km
Eccentricity
0.00447
Inclination
100.031°
RAAN
201.5665°
Arg. of periapsis
120.0109°
True anomaly
269.8456°
Mean anomaly
270.3574°
Eccentric anomaly
270.1015°
Mean motion
3.39919 °/min
Orbital period
105.91 mins
BSTAR
0.00053011
Loading maneuver chart data...
Computing Atmospheric mass density...
Loading historical data...
Loading historical data...
Loading historical data...
Loading historical data...
Loading historical data...
Loading historical data...
Loading historical data...

Documentation

Showing up to 5 results
|